Year,Month,Day,Hour,Minute,Value (Times are PST for temperature in C)
2021,08,13,00,00,20.40
2021,08,13,00,01,20.40
2021,08,13,00,02,20.40
2021,08,13,00,03,20.40
2021,08,13,00,04,20.40
2021,08,13,00,05,20.30
2021,08,13,00,06,20.30
2021,08,13,00,07,20.30
2021,08,13,00,08,20.30
2021,08,13,00,09,20.30
2021,08,13,00,10,20.30
2021,08,13,00,11,20.20
2021,08,13,00,12,20.20
2021,08,13,00,13,20.20
2021,08,13,00,14,20.20
2021,08,13,00,15,20.20
2021,08,13,00,16,20.10
2021,08,13,00,17,20.10
2021,08,13,00,18,20.10
2021,08,13,00,19,20.00
2021,08,13,00,20,20.00
2021,08,13,00,21,19.90
2021,08,13,00,22,19.90
2021,08,13,00,23,19.90
2021,08,13,00,24,19.90
2021,08,13,00,25,19.80
2021,08,13,00,26,19.80
2021,08,13,00,27,19.80
2021,08,13,00,28,19.80
2021,08,13,00,29,19.70
2021,08,13,00,30,19.70
2021,08,13,00,31,19.70
2021,08,13,00,32,19.70
2021,08,13,00,33,19.60
2021,08,13,00,34,19.60
2021,08,13,00,35,19.60
2021,08,13,00,36,19.60
2021,08,13,00,37,19.60
2021,08,13,00,38,19.60
2021,08,13,00,39,19.60
2021,08,13,00,40,19.60
2021,08,13,00,41,19.60
2021,08,13,00,42,19.50
2021,08,13,00,43,19.60
2021,08,13,00,44,19.50
2021,08,13,00,45,19.50
2021,08,13,00,46,19.50
2021,08,13,00,47,19.50
2021,08,13,00,48,19.50
2021,08,13,00,49,19.40
2021,08,13,00,50,19.40
2021,08,13,00,51,19.40
2021,08,13,00,52,19.40
2021,08,13,00,53,19.40
2021,08,13,00,54,19.40
2021,08,13,00,55,19.40
2021,08,13,00,56,19.40
2021,08,13,00,57,19.30
2021,08,13,00,58,19.40
2021,08,13,00,59,19.30
2021,08,13,01,00,19.40
2021,08,13,01,01,19.40
2021,08,13,01,02,19.40
2021,08,13,01,03,19.40
2021,08,13,01,04,19.40
2021,08,13,01,05,19.40
2021,08,13,01,06,19.40
2021,08,13,01,07,19.40
2021,08,13,01,08,19.40
2021,08,13,01,09,19.40
2021,08,13,01,10,19.40
2021,08,13,01,11,19.40
2021,08,13,01,12,19.40
2021,08,13,01,13,19.40
2021,08,13,01,14,19.30
2021,08,13,01,15,19.30
2021,08,13,01,16,19.30
2021,08,13,01,17,19.30
2021,08,13,01,18,19.30
2021,08,13,01,19,19.30
2021,08,13,01,20,19.30
2021,08,13,01,21,19.30
2021,08,13,01,22,19.30
2021,08,13,01,23,19.20
2021,08,13,01,24,19.20
2021,08,13,01,25,19.20
2021,08,13,01,26,19.20
2021,08,13,01,27,19.20
2021,08,13,01,28,19.20
2021,08,13,01,29,19.20
2021,08,13,01,30,19.20
2021,08,13,01,31,19.20
2021,08,13,01,32,19.20
2021,08,13,01,33,19.20
2021,08,13,01,34,19.20
2021,08,13,01,35,19.20
2021,08,13,01,36,19.30
2021,08,13,01,37,19.30
2021,08,13,01,38,19.30
2021,08,13,01,39,19.30
2021,08,13,01,40,19.30
2021,08,13,01,41,19.30
2021,08,13,01,42,19.30
2021,08,13,01,43,19.30
2021,08,13,01,44,19.30
2021,08,13,01,45,19.30
2021,08,13,01,46,19.30
2021,08,13,01,47,19.30
2021,08,13,01,48,19.30
2021,08,13,01,49,19.30
2021,08,13,01,50,19.30
2021,08,13,01,51,19.20
2021,08,13,01,52,19.20
2021,08,13,01,53,19.20
2021,08,13,01,54,19.20
2021,08,13,01,55,19.20
2021,08,13,01,56,19.20
2021,08,13,01,57,19.20
2021,08,13,01,58,19.20
2021,08,13,01,59,19.20
2021,08,13,02,00,19.20
2021,08,13,02,01,19.20
2021,08,13,02,02,19.20
2021,08,13,02,03,19.20
2021,08,13,02,04,19.20
2021,08,13,02,05,19.20
2021,08,13,02,06,19.20
2021,08,13,02,07,19.30
2021,08,13,02,08,19.30
2021,08,13,02,09,19.30
2021,08,13,02,10,19.30
2021,08,13,02,11,19.30
2021,08,13,02,12,19.30
2021,08,13,02,13,19.30
2021,08,13,02,14,19.30
2021,08,13,02,15,19.30
2021,08,13,02,16,19.30
2021,08,13,02,17,19.30
2021,08,13,02,18,19.30
2021,08,13,02,19,19.30
2021,08,13,02,20,19.30
2021,08,13,02,21,19.30
2021,08,13,02,22,19.30
2021,08,13,02,23,19.30
2021,08,13,02,24,19.30
2021,08,13,02,25,19.20
2021,08,13,02,26,19.30
2021,08,13,02,27,19.30
2021,08,13,02,28,19.20
2021,08,13,02,29,19.20
2021,08,13,02,30,19.20
2021,08,13,02,31,19.20
2021,08,13,02,32,19.20
2021,08,13,02,33,19.20
2021,08,13,02,34,19.20
2021,08,13,02,35,19.20
2021,08,13,02,36,19.20
2021,08,13,02,37,19.20
2021,08,13,02,38,19.20
2021,08,13,02,39,19.20
2021,08,13,02,40,19.30
2021,08,13,02,41,19.30
2021,08,13,02,42,19.30
2021,08,13,02,43,19.30
2021,08,13,02,44,19.30
2021,08,13,02,45,19.30
2021,08,13,02,46,19.20
2021,08,13,02,47,19.30
2021,08,13,02,48,19.30
2021,08,13,02,49,19.30
2021,08,13,02,50,19.30
2021,08,13,02,51,19.20
2021,08,13,02,52,19.20
2021,08,13,02,53,19.20
2021,08,13,02,54,19.20
2021,08,13,02,55,19.20
2021,08,13,02,56,19.20
2021,08,13,02,57,19.20
2021,08,13,02,58,19.20
2021,08,13,02,59,19.20
2021,08,13,03,00,19.20
2021,08,13,03,01,19.20
2021,08,13,03,02,19.20
2021,08,13,03,03,19.20
2021,08,13,03,04,19.20
2021,08,13,03,05,19.20
2021,08,13,03,06,19.10
2021,08,13,03,07,19.10
2021,08,13,03,08,19.10
2021,08,13,03,09,19.10
2021,08,13,03,10,19.00
2021,08,13,03,11,19.00
2021,08,13,03,12,19.00
2021,08,13,03,13,18.90
2021,08,13,03,14,18.90
2021,08,13,03,15,18.90
2021,08,13,03,16,18.90
2021,08,13,03,17,18.90
2021,08,13,03,18,18.90
2021,08,13,03,19,18.90
2021,08,13,03,20,19.00
2021,08,13,03,21,19.00
2021,08,13,03,22,19.00
2021,08,13,03,23,19.00
2021,08,13,03,24,19.00
2021,08,13,03,25,19.00
2021,08,13,03,26,19.10
2021,08,13,03,27,19.10
2021,08,13,03,28,19.10
2021,08,13,03,29,19.10
2021,08,13,03,30,19.20
2021,08,13,03,31,19.20
2021,08,13,03,32,19.20
2021,08,13,03,33,19.20
2021,08,13,03,34,19.20
2021,08,13,03,35,19.20
2021,08,13,03,36,19.20
2021,08,13,03,37,19.20
2021,08,13,03,38,19.20
2021,08,13,03,39,19.20
2021,08,13,03,40,19.20
2021,08,13,03,41,19.20
2021,08,13,03,42,19.10
2021,08,13,03,43,19.10
2021,08,13,03,44,19.10
2021,08,13,03,45,19.10
2021,08,13,03,46,19.00
2021,08,13,03,47,19.00
2021,08,13,03,48,18.90
2021,08,13,03,49,18.90
2021,08,13,03,50,18.90
2021,08,13,03,51,18.90
2021,08,13,03,52,18.90
2021,08,13,03,53,18.80
2021,08,13,03,54,18.80
2021,08,13,03,55,18.80
2021,08,13,03,56,18.80
2021,08,13,03,57,18.70
2021,08,13,03,58,18.70
2021,08,13,03,59,18.70
2021,08,13,04,00,18.70
2021,08,13,04,01,18.70
2021,08,13,04,02,18.70
2021,08,13,04,03,18.60
2021,08,13,04,04,18.60
2021,08,13,04,05,18.60
2021,08,13,04,06,18.60
2021,08,13,04,07,18.60
2021,08,13,04,08,18.60
2021,08,13,04,09,18.60
2021,08,13,04,10,18.50
2021,08,13,04,11,18.50
2021,08,13,04,12,18.50
2021,08,13,04,13,18.50
2021,08,13,04,14,18.50
2021,08,13,04,15,18.50
2021,08,13,04,16,18.50
2021,08,13,04,17,18.50
2021,08,13,04,18,18.50
2021,08,13,04,19,18.60
2021,08,13,04,20,18.60
2021,08,13,04,21,18.60
2021,08,13,04,22,18.50
2021,08,13,04,23,18.50
2021,08,13,04,24,18.50
2021,08,13,04,25,18.50
2021,08,13,04,26,18.50
2021,08,13,04,27,18.50
2021,08,13,04,28,18.50
2021,08,13,04,29,18.40
2021,08,13,04,30,18.40
2021,08,13,04,31,18.40
2021,08,13,04,32,18.40
2021,08,13,04,33,18.40
2021,08,13,04,34,18.30
2021,08,13,04,35,18.30
2021,08,13,04,36,18.30
2021,08,13,04,37,18.30
2021,08,13,04,38,18.30
2021,08,13,04,39,18.30
2021,08,13,04,40,18.30
2021,08,13,04,41,18.30
2021,08,13,04,42,18.30
2021,08,13,04,43,18.30
2021,08,13,04,44,18.30
2021,08,13,04,45,18.30
2021,08,13,04,46,18.30
2021,08,13,04,47,18.30
2021,08,13,04,48,18.30
2021,08,13,04,49,18.30
2021,08,13,04,50,18.30
2021,08,13,04,51,18.30
2021,08,13,04,52,18.30
2021,08,13,04,53,18.30
2021,08,13,04,54,18.30
2021,08,13,04,55,18.30
2021,08,13,04,56,18.20
2021,08,13,04,57,18.20
2021,08,13,04,58,18.20
2021,08,13,04,59,18.20
2021,08,13,05,00,18.20
2021,08,13,05,01,18.20
2021,08,13,05,02,18.20
2021,08,13,05,03,18.20
2021,08,13,05,04,18.20
2021,08,13,05,05,18.20
2021,08,13,05,06,18.20
2021,08,13,05,07,18.20
2021,08,13,05,08,18.20
2021,08,13,05,09,18.20
2021,08,13,05,10,18.20
2021,08,13,05,11,18.10
2021,08,13,05,12,18.10
2021,08,13,05,13,18.10
2021,08,13,05,14,18.10
2021,08,13,05,15,18.10
2021,08,13,05,16,18.10
2021,08,13,05,17,18.10
2021,08,13,05,18,18.10
2021,08,13,05,19,18.10
2021,08,13,05,20,18.10
2021,08,13,05,21,18.10
2021,08,13,05,22,18.10
2021,08,13,05,23,18.10
2021,08,13,05,24,18.20
2021,08,13,05,25,18.20
2021,08,13,05,26,18.20
2021,08,13,05,27,18.20
2021,08,13,05,28,18.10
2021,08,13,05,29,18.10
2021,08,13,05,30,18.10
2021,08,13,05,31,18.10
2021,08,13,05,32,18.10
2021,08,13,05,33,18.10
2021,08,13,05,34,18.10
2021,08,13,05,35,18.10
2021,08,13,05,36,18.10
2021,08,13,05,37,18.10
2021,08,13,05,38,18.00
2021,08,13,05,39,18.00
2021,08,13,05,40,18.00
2021,08,13,05,41,18.00
2021,08,13,05,42,18.00
2021,08,13,05,43,18.00
2021,08,13,05,44,17.90
2021,08,13,05,45,17.90
2021,08,13,05,46,17.90
2021,08,13,05,47,17.90
2021,08,13,05,48,17.90
2021,08,13,05,49,17.90
2021,08,13,05,50,17.90
2021,08,13,05,51,17.90
2021,08,13,05,52,17.90
2021,08,13,05,53,17.90
2021,08,13,05,54,17.90
2021,08,13,05,55,17.90
2021,08,13,05,56,17.90
2021,08,13,05,57,17.90
2021,08,13,05,58,17.90
2021,08,13,05,59,17.90
2021,08,13,06,00,17.90
2021,08,13,06,01,17.90
2021,08,13,06,02,17.90
2021,08,13,06,03,17.90
2021,08,13,06,04,17.90
2021,08,13,06,05,17.90
2021,08,13,06,06,17.90
2021,08,13,06,07,17.90
2021,08,13,06,08,17.90
2021,08,13,06,09,17.90
2021,08,13,06,10,17.90
2021,08,13,06,11,17.90
2021,08,13,06,12,17.90
2021,08,13,06,13,17.90
2021,08,13,06,14,17.90
2021,08,13,06,15,17.90
2021,08,13,06,16,17.90
2021,08,13,06,17,17.90
2021,08,13,06,18,17.90
2021,08,13,06,19,17.90
2021,08,13,06,20,17.90
2021,08,13,06,21,17.90
2021,08,13,06,22,17.90
2021,08,13,06,23,17.90
2021,08,13,06,24,17.90
2021,08,13,06,25,17.90
2021,08,13,06,26,17.90
2021,08,13,06,27,17.90
2021,08,13,06,28,17.90
2021,08,13,06,29,17.90
2021,08,13,06,30,17.90
2021,08,13,06,31,17.90
2021,08,13,06,32,17.90
2021,08,13,06,33,17.90
2021,08,13,06,34,17.90
2021,08,13,06,35,17.90
2021,08,13,06,36,17.90
2021,08,13,06,37,17.90
2021,08,13,06,38,17.90
2021,08,13,06,39,17.90
2021,08,13,06,40,17.90
2021,08,13,06,41,17.90
2021,08,13,06,42,17.90
2021,08,13,06,43,17.90
2021,08,13,06,44,17.80
2021,08,13,06,45,17.80
2021,08,13,06,46,17.80
2021,08,13,06,47,17.80
2021,08,13,06,48,17.80
2021,08,13,06,49,17.80
2021,08,13,06,50,17.80
2021,08,13,06,51,17.80
2021,08,13,06,52,17.90
2021,08,13,06,53,17.90
2021,08,13,06,54,17.90
2021,08,13,06,55,17.90
2021,08,13,06,56,17.90
2021,08,13,06,57,17.90
2021,08,13,06,58,17.90
2021,08,13,06,59,17.90
2021,08,13,07,00,18.00
2021,08,13,07,01,18.00
2021,08,13,07,02,18.00
2021,08,13,07,03,18.00
2021,08,13,07,04,18.00
2021,08,13,07,05,18.00
2021,08,13,07,06,18.00
2021,08,13,07,07,18.00
2021,08,13,07,08,18.00
2021,08,13,07,09,18.10
2021,08,13,07,10,18.10
2021,08,13,07,11,18.10
2021,08,13,07,12,18.10
2021,08,13,07,13,18.10
2021,08,13,07,14,18.10
2021,08,13,07,15,18.10
2021,08,13,07,16,18.10
2021,08,13,07,17,18.10
2021,08,13,07,18,18.20
2021,08,13,07,19,18.20
2021,08,13,07,20,18.20
2021,08,13,07,21,18.20
2021,08,13,07,22,18.20
2021,08,13,07,23,18.30
2021,08,13,07,24,18.30
2021,08,13,07,25,18.30
2021,08,13,07,26,18.40
2021,08,13,07,27,18.40
2021,08,13,07,28,18.40
2021,08,13,07,29,18.50
2021,08,13,07,30,18.50
2021,08,13,07,31,18.50
2021,08,13,07,32,18.60
2021,08,13,07,33,18.60
2021,08,13,07,34,18.70
2021,08,13,07,35,18.70
2021,08,13,07,36,18.70
2021,08,13,07,37,18.80
2021,08,13,07,38,18.90
2021,08,13,07,39,18.90
2021,08,13,07,40,19.00
2021,08,13,07,41,19.00
2021,08,13,07,42,19.10
2021,08,13,07,43,19.10
2021,08,13,07,44,19.20
2021,08,13,07,45,19.20
2021,08,13,07,46,19.30
2021,08,13,07,47,19.30
2021,08,13,07,48,19.30
2021,08,13,07,49,19.40
2021,08,13,07,50,19.40
2021,08,13,07,51,19.50
2021,08,13,07,52,19.50
2021,08,13,07,53,19.60
2021,08,13,07,54,19.60
2021,08,13,07,55,19.60
2021,08,13,07,56,19.70
2021,08,13,07,57,19.70
2021,08,13,07,58,19.70
2021,08,13,07,59,19.80
2021,08,13,08,00,19.80
2021,08,13,08,01,19.80
2021,08,13,08,02,19.90
2021,08,13,08,03,19.90
2021,08,13,08,04,19.90
2021,08,13,08,05,20.00
2021,08,13,08,06,20.10
2021,08,13,08,07,20.10
2021,08,13,08,08,20.10
2021,08,13,08,09,20.20
2021,08,13,08,10,20.20
2021,08,13,08,11,20.30
2021,08,13,08,12,20.30
2021,08,13,08,13,20.40
2021,08,13,08,14,20.40
2021,08,13,08,15,20.50
2021,08,13,08,16,20.50
2021,08,13,08,17,20.60
2021,08,13,08,18,20.70
2021,08,13,08,19,20.70
2021,08,13,08,20,20.80
2021,08,13,08,21,20.80
2021,08,13,08,22,20.90
2021,08,13,08,23,21.00
2021,08,13,08,24,21.00
2021,08,13,08,25,21.10
2021,08,13,08,26,21.20
2021,08,13,08,27,21.20
2021,08,13,08,28,21.30
2021,08,13,08,29,21.40
2021,08,13,08,30,21.40
2021,08,13,08,31,21.50
2021,08,13,08,32,21.60
2021,08,13,08,33,21.70
2021,08,13,08,34,21.80
2021,08,13,08,35,21.80
2021,08,13,08,36,21.90
2021,08,13,08,37,22.00
2021,08,13,08,38,22.10
2021,08,13,08,39,22.10
2021,08,13,08,40,22.20
2021,08,13,08,41,22.20
2021,08,13,08,42,22.30
2021,08,13,08,43,22.40
2021,08,13,08,44,22.40
2021,08,13,08,45,22.50
2021,08,13,08,46,22.60
2021,08,13,08,47,22.70
2021,08,13,08,48,22.70
2021,08,13,08,49,22.80
2021,08,13,08,50,22.90
2021,08,13,08,51,22.90
2021,08,13,08,52,23.00
2021,08,13,08,53,23.10
2021,08,13,08,54,23.10
2021,08,13,08,55,23.20
2021,08,13,08,56,23.30
2021,08,13,08,57,23.30
2021,08,13,08,58,23.40
2021,08,13,08,59,23.50
2021,08,13,09,00,23.50
2021,08,13,09,01,23.60
2021,08,13,09,02,23.70
2021,08,13,09,03,23.80
2021,08,13,09,04,23.80
2021,08,13,09,05,23.90
2021,08,13,09,06,23.90
2021,08,13,09,07,24.00
2021,08,13,09,08,24.00
2021,08,13,09,09,24.10
2021,08,13,09,10,24.20
2021,08,13,09,11,24.30
2021,08,13,09,12,24.40
2021,08,13,09,13,24.40
2021,08,13,09,14,24.50
2021,08,13,09,15,24.60
2021,08,13,09,16,24.60
2021,08,13,09,17,24.60
2021,08,13,09,18,24.70
2021,08,13,09,19,24.80
2021,08,13,09,20,24.80
2021,08,13,09,21,24.90
2021,08,13,09,22,24.90
2021,08,13,09,23,25.00
2021,08,13,09,24,25.10
2021,08,13,09,25,25.20
2021,08,13,09,26,25.20
2021,08,13,09,27,25.30
2021,08,13,09,28,25.30
2021,08,13,09,29,25.30
2021,08,13,09,30,25.40
2021,08,13,09,31,25.40
2021,08,13,09,32,25.50
2021,08,13,09,33,25.50
2021,08,13,09,34,25.50
2021,08,13,09,35,25.50
2021,08,13,09,36,25.60
2021,08,13,09,37,25.60
2021,08,13,09,38,25.60
2021,08,13,09,39,25.60
2021,08,13,09,40,25.60
2021,08,13,09,41,25.70
2021,08,13,09,42,25.70
2021,08,13,09,43,25.70
2021,08,13,09,44,25.70
2021,08,13,09,45,25.70
2021,08,13,09,46,25.70
2021,08,13,09,47,25.70
2021,08,13,09,48,25.70
2021,08,13,09,49,25.80
2021,08,13,09,50,25.80
2021,08,13,09,51,25.80
2021,08,13,09,52,25.90
2021,08,13,09,53,25.90
2021,08,13,09,54,25.90
2021,08,13,09,55,26.00
2021,08,13,09,56,26.00
2021,08,13,09,57,26.10
2021,08,13,09,58,26.10
2021,08,13,09,59,26.10
2021,08,13,10,00,26.20
2021,08,13,10,01,26.20
2021,08,13,10,02,26.20
2021,08,13,10,03,26.30
2021,08,13,10,04,26.30
2021,08,13,10,05,26.40
2021,08,13,10,06,26.40
2021,08,13,10,07,26.40
2021,08,13,10,08,26.50
2021,08,13,10,09,26.50
2021,08,13,10,10,26.60
2021,08,13,10,11,26.60
2021,08,13,10,12,26.70
2021,08,13,10,13,26.70
2021,08,13,10,14,26.70
2021,08,13,10,15,26.80
2021,08,13,10,16,26.80
2021,08,13,10,17,26.80
2021,08,13,10,18,26.80
2021,08,13,10,19,26.90
2021,08,13,10,20,26.90
2021,08,13,10,21,26.90
2021,08,13,10,22,26.90
2021,08,13,10,23,27.00
2021,08,13,10,24,27.00
2021,08,13,10,25,27.00
2021,08,13,10,26,27.00
2021,08,13,10,27,27.00
2021,08,13,10,28,27.10
2021,08,13,10,29,27.10
2021,08,13,10,30,27.10
2021,08,13,10,31,27.10
2021,08,13,10,32,27.10
2021,08,13,10,33,27.20
2021,08,13,10,34,27.20
2021,08,13,10,35,27.20
2021,08,13,10,36,27.20
2021,08,13,10,37,27.30
2021,08,13,10,38,27.30
2021,08,13,10,39,27.30
2021,08,13,10,40,27.30
2021,08,13,10,41,27.40
2021,08,13,10,42,27.40
2021,08,13,10,43,27.40
2021,08,13,10,44,27.40
2021,08,13,10,45,27.50
2021,08,13,10,46,27.50
2021,08,13,10,47,27.60
2021,08,13,10,48,27.60
2021,08,13,10,49,27.60
2021,08,13,10,50,27.70
2021,08,13,10,51,27.70
2021,08,13,10,52,27.70
2021,08,13,10,53,27.80
2021,08,13,10,54,27.80
2021,08,13,10,55,27.80
2021,08,13,10,56,27.80
2021,08,13,10,57,27.90
2021,08,13,10,58,27.90
2021,08,13,10,59,27.90
2021,08,13,11,00,28.00
2021,08,13,11,01,28.00
2021,08,13,11,02,28.00
2021,08,13,11,03,28.10
2021,08,13,11,04,28.10
2021,08,13,11,05,28.10
2021,08,13,11,06,28.20
2021,08,13,11,07,28.20
2021,08,13,11,08,28.20
2021,08,13,11,09,28.30
2021,08,13,11,10,28.30
2021,08,13,11,11,28.30
2021,08,13,11,12,28.40
2021,08,13,11,13,28.40
2021,08,13,11,14,28.40
2021,08,13,11,15,28.40
2021,08,13,11,16,28.40
2021,08,13,11,17,28.50
2021,08,13,11,18,28.50
2021,08,13,11,19,28.50
2021,08,13,11,20,28.50
2021,08,13,11,21,28.60
2021,08,13,11,22,28.60
2021,08,13,11,23,28.60
2021,08,13,11,24,28.70
2021,08,13,11,25,28.70
2021,08,13,11,26,28.80
2021,08,13,11,27,28.80
2021,08,13,11,28,28.90
2021,08,13,11,29,28.90
2021,08,13,11,30,29.00
2021,08,13,11,31,29.00
2021,08,13,11,32,29.10
2021,08,13,11,33,29.10
2021,08,13,11,34,29.10
2021,08,13,11,35,29.10
2021,08,13,11,36,29.10
2021,08,13,11,37,29.20
2021,08,13,11,38,29.20
2021,08,13,11,39,29.20
2021,08,13,11,40,29.20
2021,08,13,11,41,29.20
2021,08,13,11,42,29.20
2021,08,13,11,43,29.20
2021,08,13,11,44,29.20
2021,08,13,11,45,29.20
2021,08,13,11,46,29.20
2021,08,13,11,47,29.30
2021,08,13,11,48,29.30
2021,08,13,11,49,29.30
2021,08,13,11,50,29.30
2021,08,13,11,51,29.40
2021,08,13,11,52,29.40
2021,08,13,11,53,29.40
2021,08,13,11,54,29.50
2021,08,13,11,55,29.60
2021,08,13,11,56,29.60
2021,08,13,11,57,29.60
2021,08,13,11,58,29.70
2021,08,13,11,59,29.70
2021,08,13,12,00,29.70
2021,08,13,12,01,29.80
2021,08,13,12,02,29.80
2021,08,13,12,03,29.80
2021,08,13,12,04,29.80
2021,08,13,12,05,29.90
2021,08,13,12,06,29.90
2021,08,13,12,07,29.90
2021,08,13,12,08,30.00
2021,08,13,12,09,30.00
2021,08,13,12,10,30.00
2021,08,13,12,11,30.00
2021,08,13,12,12,30.00
2021,08,13,12,13,29.90
2021,08,13,12,14,30.00
2021,08,13,12,15,29.90
2021,08,13,12,16,30.00
2021,08,13,12,17,30.00
2021,08,13,12,18,30.00
2021,08,13,12,19,30.00
2021,08,13,12,20,30.00
2021,08,13,12,21,30.00
2021,08,13,12,22,30.10
2021,08,13,12,23,30.10
2021,08,13,12,24,30.10
2021,08,13,12,25,30.00
2021,08,13,12,26,30.10
2021,08,13,12,27,30.10
2021,08,13,12,28,30.00
2021,08,13,12,29,30.00
2021,08,13,12,30,30.00
2021,08,13,12,31,30.10
2021,08,13,12,32,30.10
2021,08,13,12,33,30.10
2021,08,13,12,34,30.10
2021,08,13,12,35,30.10
2021,08,13,12,36,30.10
2021,08,13,12,37,30.10
2021,08,13,12,38,30.00
2021,08,13,12,39,30.00
2021,08,13,12,40,30.00
2021,08,13,12,41,29.90
2021,08,13,12,42,29.90
2021,08,13,12,43,29.90
2021,08,13,12,44,29.90
2021,08,13,12,45,29.90
2021,08,13,12,46,29.90
2021,08,13,12,47,29.90
2021,08,13,12,48,29.90
2021,08,13,12,49,30.00
2021,08,13,12,50,30.00
2021,08,13,12,51,30.10
2021,08,13,12,52,30.10
2021,08,13,12,53,30.20
2021,08,13,12,54,30.20
2021,08,13,12,55,30.20
2021,08,13,12,56,30.20
2021,08,13,12,57,30.30
2021,08,13,12,58,30.30
2021,08,13,12,59,30.30
2021,08,13,13,00,30.30
2021,08,13,13,01,30.30
2021,08,13,13,02,30.30
2021,08,13,13,03,30.40
2021,08,13,13,04,30.40
2021,08,13,13,05,30.40
2021,08,13,13,06,30.40
2021,08,13,13,07,30.40
2021,08,13,13,08,30.40
2021,08,13,13,09,30.40
2021,08,13,13,10,30.40
2021,08,13,13,11,30.30
2021,08,13,13,12,30.30
2021,08,13,13,13,30.30
2021,08,13,13,14,30.30
2021,08,13,13,15,30.20
2021,08,13,13,16,30.20
2021,08,13,13,17,30.20
2021,08,13,13,18,30.20
2021,08,13,13,19,30.20
2021,08,13,13,20,30.20
2021,08,13,13,21,30.20
2021,08,13,13,22,30.20
2021,08,13,13,23,30.20
2021,08,13,13,24,30.20
2021,08,13,13,25,30.20
2021,08,13,13,26,30.20
2021,08,13,13,27,30.20
2021,08,13,13,28,30.20
2021,08,13,13,29,30.20
2021,08,13,13,30,30.20
2021,08,13,13,31,30.20
2021,08,13,13,32,30.20
2021,08,13,13,33,30.20
2021,08,13,13,34,30.20
2021,08,13,13,35,30.20
2021,08,13,13,36,30.20
2021,08,13,13,37,30.20
2021,08,13,13,38,30.20
2021,08,13,13,39,30.20
2021,08,13,13,40,30.30
2021,08,13,13,41,30.30
2021,08,13,13,42,30.30
2021,08,13,13,43,30.30
2021,08,13,13,44,30.30
2021,08,13,13,45,30.40
2021,08,13,13,46,30.40
2021,08,13,13,47,30.40
2021,08,13,13,48,30.40
2021,08,13,13,49,30.40
2021,08,13,13,50,30.40
2021,08,13,13,51,30.40
2021,08,13,13,52,30.40
2021,08,13,13,53,30.40
2021,08,13,13,54,30.50
2021,08,13,13,55,30.50
2021,08,13,13,56,30.50
2021,08,13,13,57,30.50
2021,08,13,13,58,30.60
2021,08,13,13,59,30.60
2021,08,13,14,00,30.60
2021,08,13,14,01,30.60
2021,08,13,14,02,30.60
2021,08,13,14,03,30.60
2021,08,13,14,04,30.60
2021,08,13,14,05,30.60
2021,08,13,14,06,30.60
2021,08,13,14,07,30.60
2021,08,13,14,08,30.60
2021,08,13,14,09,30.60
2021,08,13,14,10,30.50
2021,08,13,14,11,30.50
2021,08,13,14,12,30.50
2021,08,13,14,13,30.50
2021,08,13,14,14,30.50
2021,08,13,14,15,30.50
2021,08,13,14,16,30.60
2021,08,13,14,17,30.60
2021,08,13,14,18,30.60
2021,08,13,14,19,30.60
2021,08,13,14,20,30.60
2021,08,13,14,21,30.70
2021,08,13,14,22,30.70
2021,08,13,14,23,30.70
2021,08,13,14,24,30.80
2021,08,13,14,25,30.80
2021,08,13,14,26,30.80
2021,08,13,14,27,30.80
2021,08,13,14,28,30.80
2021,08,13,14,29,30.90
2021,08,13,14,30,30.90
2021,08,13,14,31,30.90
2021,08,13,14,32,30.90
2021,08,13,14,33,30.90
2021,08,13,14,34,30.90
2021,08,13,14,35,30.90
2021,08,13,14,36,30.90
2021,08,13,14,37,30.90
2021,08,13,14,38,30.90
2021,08,13,14,39,30.90
2021,08,13,14,40,30.90
2021,08,13,14,41,30.90
2021,08,13,14,42,30.90
2021,08,13,14,43,30.90
2021,08,13,14,44,30.90
2021,08,13,14,45,30.90
2021,08,13,14,46,30.90
2021,08,13,14,47,30.90
2021,08,13,14,48,30.90
2021,08,13,14,49,30.90
2021,08,13,14,50,30.90
2021,08,13,14,51,30.90
2021,08,13,14,52,30.90
2021,08,13,14,53,30.90
2021,08,13,14,54,30.90
2021,08,13,14,55,30.90
2021,08,13,14,56,30.90
2021,08,13,14,57,31.00
2021,08,13,14,58,31.00
2021,08,13,14,59,31.00
2021,08,13,15,00,31.00
2021,08,13,15,01,31.00
2021,08,13,15,02,31.10
2021,08,13,15,03,31.10
2021,08,13,15,04,31.10
2021,08,13,15,05,31.10
2021,08,13,15,06,31.10
2021,08,13,15,07,31.10
2021,08,13,15,08,31.10
2021,08,13,15,09,31.10
2021,08,13,15,10,31.10
2021,08,13,15,11,31.10
2021,08,13,15,12,31.00
2021,08,13,15,13,31.00
2021,08,13,15,14,30.90
2021,08,13,15,15,30.90
2021,08,13,15,16,30.90
2021,08,13,15,17,30.90
2021,08,13,15,18,30.90
2021,08,13,15,19,31.00
2021,08,13,15,20,31.00
2021,08,13,15,21,31.00
2021,08,13,15,22,31.10
2021,08,13,15,23,31.10
2021,08,13,15,24,31.10
2021,08,13,15,25,31.10
2021,08,13,15,26,31.20
2021,08,13,15,27,31.20
2021,08,13,15,28,31.30
2021,08,13,15,29,31.30
2021,08,13,15,30,31.30
2021,08,13,15,31,31.40
2021,08,13,15,32,31.40
2021,08,13,15,33,31.50
2021,08,13,15,34,31.50
2021,08,13,15,35,31.60
2021,08,13,15,36,31.60
2021,08,13,15,37,31.60
2021,08,13,15,38,31.70
2021,08,13,15,39,31.70
2021,08,13,15,40,31.80
2021,08,13,15,41,31.80
2021,08,13,15,42,31.80
2021,08,13,15,43,31.80
2021,08,13,15,44,31.80
2021,08,13,15,45,31.80
2021,08,13,15,46,31.80
2021,08,13,15,47,31.80
2021,08,13,15,48,31.80
2021,08,13,15,49,31.80
2021,08,13,15,50,31.70
2021,08,13,15,51,31.70
2021,08,13,15,52,31.60
2021,08,13,15,53,31.60
2021,08,13,15,54,31.50
2021,08,13,15,55,31.40
2021,08,13,15,56,31.40
2021,08,13,15,57,31.30
2021,08,13,15,58,31.20
2021,08,13,15,59,31.10
2021,08,13,16,00,31.10
2021,08,13,16,01,31.00
2021,08,13,16,02,30.90
2021,08,13,16,03,30.90
2021,08,13,16,04,30.90
2021,08,13,16,05,30.90
2021,08,13,16,06,30.90
2021,08,13,16,07,30.90
2021,08,13,16,08,30.90
2021,08,13,16,09,30.90
2021,08,13,16,10,30.90
2021,08,13,16,11,30.90
2021,08,13,16,12,30.80
2021,08,13,16,13,30.80
2021,08,13,16,14,30.80
2021,08,13,16,15,30.80
2021,08,13,16,16,30.80
2021,08,13,16,17,30.70
2021,08,13,16,18,30.70
2021,08,13,16,19,30.70
2021,08,13,16,20,30.60
2021,08,13,16,21,30.50
2021,08,13,16,22,30.50
2021,08,13,16,23,30.40
2021,08,13,16,24,30.40
2021,08,13,16,25,30.30
2021,08,13,16,26,30.30
2021,08,13,16,27,30.20
2021,08,13,16,28,30.20
2021,08,13,16,29,30.10
2021,08,13,16,30,30.10
2021,08,13,16,31,30.10
2021,08,13,16,32,30.10
2021,08,13,16,33,30.00
2021,08,13,16,34,30.00
2021,08,13,16,35,30.00
2021,08,13,16,36,30.00
2021,08,13,16,37,29.90
2021,08,13,16,38,29.90
2021,08,13,16,39,29.90
2021,08,13,16,40,29.80
2021,08,13,16,41,29.80
2021,08,13,16,42,29.70
2021,08,13,16,43,29.70
2021,08,13,16,44,29.60
2021,08,13,16,45,29.60
2021,08,13,16,46,29.50
2021,08,13,16,47,29.50
2021,08,13,16,48,29.40
2021,08,13,16,49,29.30
2021,08,13,16,50,29.30
2021,08,13,16,51,29.20
2021,08,13,16,52,29.20
2021,08,13,16,53,29.10
2021,08,13,16,54,29.00
2021,08,13,16,55,29.00
2021,08,13,16,56,28.90
2021,08,13,16,57,28.90
2021,08,13,16,58,28.80
2021,08,13,16,59,28.80
2021,08,13,17,00,28.70
2021,08,13,17,01,28.70
2021,08,13,17,02,28.60
2021,08,13,17,03,28.60
2021,08,13,17,04,28.50
2021,08,13,17,05,28.50
2021,08,13,17,06,28.40
2021,08,13,17,07,28.40
2021,08,13,17,08,28.30
2021,08,13,17,09,28.30
2021,08,13,17,10,28.30
2021,08,13,17,11,28.30
2021,08,13,17,12,28.20
2021,08,13,17,13,28.20
2021,08,13,17,14,28.20
2021,08,13,17,15,28.20
2021,08,13,17,16,28.20
2021,08,13,17,17,28.10
2021,08,13,17,18,28.10
2021,08,13,17,19,28.10